Find Starlink 4059

NORAD ID: 53250 Int'l Des: 2022-086 Owner: SPXS Country: US Constellation: starlink operational
LEOCIRCULAR

Live Position

Loading 3D Globe...

About Starlink 4059

Description loading...

Upcoming Passes

Passes for default location (London). Set your location on the main map for personalized predictions.

Altitude History

Loading altitude history...

Two-Line Element Set

1 53250U 22086J 26121.24168403 -.00001574 00000-0 -80843-4 0 9999
2 53250 53.2187 318.2061 0001161 78.9824 281.1299 15.08833354209004
Epoch: May 1, 2026 • Age: 14 hours

Current Status

Altitude 556.2 km
Velocity 7.58 km/s
Sub-Earth Point -46.23°S, 107.55°E
Launch Date Jul 24, 2022
Age 3.7 years
Type internet

Technical Details

Classification Payload
Mass 297.00 kg
Dry Mass 275.00 kg
Total Mass 297.00 kg
Length 0.20 m
Diameter 2.80 m
Span 9.00 m
Shape Box + pan
Manufacturer SPXS
Bus Type Starlink
Phase Status In Orbit
Owner/State SPXS/US

Most Searched